Regional Weather Roundup
Issued by NWS Mobile, AL

Home | Current Version | Previous Version | Text Only | Print | Product List | Glossary On
Versions: 1 2 3 4 5 6 7 8 9 10 11 12 13 14 15 16 17 18 19 20 21 22 23 24 25 26 27
000
ASUS44 KMOB 230212
RWRMOB
REGIONAL WEATHER ROUNDUP
NATIONAL WEATHER SERVICE MOBILE AL
800 PM CST SUN JAN 22 2017

NOTE: "FAIR" INDICATES FEW OR NO CLOUDS BELOW 12,000 FEET WITH NO
      SIGNIFICANT WEATHER AND/OR OBSTRUCTIONS TO VISIBILITY.

  * THESE STATIONS ARE PART OF THE UNIVERSITY OF SOUTH ALABAMA
    MESONET AND ARE NOT UNDER NWS OR FAA QUALITY CONTROL.

ALZ061>064-230300-
COASTAL ALABAMA

CITY           SKY/WX    TMP DP  RH WIND       PRES   REMARKS
MOBILE REG APT CLEAR     58  39  49 W7        29.47R
BROOKLEY FIELD CLEAR     61  41  47 W9        29.48R
USA CAMPUS*      N/A     55  43  62 CALM      29.47R
DOG RIVER*       N/A     59  41  51 W10       30.06R


CITY           SKY/WX    TMP DP  RH WIND       PRES   REMARKS
GULF SHORES    PTCLDY    61  42  49 W25G37    29.47R

$$

ALZ051>060-230300-
INTERIOR SOUTHWEST AND SOUTH CENTRAL ALABAMA

CITY           SKY/WX    TMP DP  RH WIND       PRES   REMARKS
GREENVILLE     CLOUDY    54  48  80 SW13      29.38R
EVERGREEN      MOCLDY    59  40  49 W10G20    29.41R
ATMORE*        NOT AVBL
ANDALUSIA/OPP  CLOUDY    60  45  57 W9        29.40R
ANDALUSIA*       N/A     57  45  62 W13       29.41R
FLORALA APT    CLOUDY    58  46  64 VRB3      29.42S
FLORALA*         N/A     55  48  76 SE2       29.95R

$$

FLZ001>006-230300-
WESTERN FLORIDA PANHANDLE

CITY           SKY/WX    TMP DP  RH WIND       PRES   REMARKS
PENSACOLA      CLEAR     62  40  44 W22G32    29.44R
NAS PENSACOLA  PTCLDY    62  39  42 W9G23     29.45R
MILTON         LGT RAIN  58  39  49 W12       29.44R
WHTNG S FIELD  PTCLDY    62  40  44 VRB6      29.44R


CITY           SKY/WX    TMP DP  RH WIND       PRES   REMARKS
JAY*             N/A     57  41  54 W10       29.45R
DUKE FIELD     MOCLDY    61  44  53 W9        29.41R
CRESTVIEW      CLOUDY    60  45  57 W7        29.43R
VALPARAISO     PTCLDY    62  46  56 W10       29.43R
DESTIN         CLOUDY    67  50  54 W12G26    29.43S

$$

MSZ076-079-230300-
INTERIOR SOUTHEAST MISSISSIPPI

CITY           SKY/WX    TMP DP  RH WIND       PRES   REMARKS
LEAKESVILLE*   NOT AVBL
AGRICOLA*      NOT AVBL

$$

MARINE OBSERVATIONS

STATION/POSITION TIME  TEMP    WIND        PRES    WAVE
                       AIR SEA DIR/SP/G            HT/PER
                 (UTC) (F)     (DEG/KT/KT) (MB)    (FT/S)
PASCAGOULA       0142   61     280/ 12/ 16  998.1R
PETIT BOIS ISLND 0142   62     280/ 25/ 30  999.1R
GRAND BAY        0045   62     280/ 13      998.0R
KATRINA CUT      0130          280/ 30      997.6R
CEDAR POINT      0130   64     280/ 27      997.3R
E DAUPHIN ISLAND 0100   63     260/ 16/ 21  997.5R
MIDDLE BAY LIGHT 0130   62     270/ 19      998.0R
USCG MOBILE BAY  0142   60 65  270/ 11/ 15  998.2R
STATE DOCKS      0142   60 62               997.4R
MEAHER PARK      0130   62     260/ 17      997.6R
WEEKS BAY        0045   63                   N/A
FORT MORGAN      0142   63     280/ 32/ 38   N/A
12 S ORANGE BCH  0050   65 66  280/ 29/ 35  996.3R   9/ 8
PENSACOLA BAY    0142   63 62  280/ 10/ 16  997.1R
67 S FORT MORGAN 0030   65                  998.3R

$$

SELECTED LOCATIONS ACROSS THE REGION

CITY           SKY/WX    TMP DP  RH WIND       PRES   REMARKS
NEW ORLEANS    PTCLDY    62  46  55 W23G38    29.56R
GULFPORT       CLEAR     58  41  53 W5        29.48S
PASCAGOULA AP  CLEAR     59  39  47 W8        29.48R
PASCAGOULA*    NOT AVBL
HATTIESBURG    MOCLDY    57  41  55 W7        29.48R
LAUREL         MOCLDY    55  41  58 W6        29.49R
MERIDIAN       LGT RAIN  52  51  97 W5        29.42F
JACKSON        LGT RAIN  53  49  86 W9        29.47R
MONTGOMERY     RAIN      52  45  77 W10       29.39R
TROY           PTCLDY    50  49  96 S3        29.38F
ASHFORD*         N/A     57  45  62 W13       29.41R
DOTHAN         PTCLDY    56  49  77 SW5       29.42F
PANAMA CITY    CLOUDY    61  47  59 W9        29.41S

$$





USA.gov is the U.S. government's official web portal to all federal, state and local government web resources and services.